Regional Weather Roundup
Issued by NWS

Current Version | Previous Version | Text Only | Print | Product List | Glossary Off
Versions: 1 2 3 4 5 6 7 8 9 10 11 12 13 14 15 16 17 18 19 20 21 22 23 24 25 26 27 28 29 30 31 32 33 34 35 36 37 38 39 40 41 42 43 44 45 46 47 48 49 50

000
ASUS42 KFFC 022303
RWRGA
WEATHER ROUNDUP FOR GEORGIA
NATIONAL WEATHER SERVICE PEACHTREE CITY GA
700 PM EDT TUE SEP 02 2014

NOTE: "FAIR" INDICATES FEW OR NO CLOUDS BELOW 12,000 FEET WITH NO
SIGNIFICANT WEATHER AND/OR OBSTRUCTIONS TO VISIBILITY.

* = USE WITH CAUTION. THE STATIONS MARKED WITH AN ASTERISK MAY NOT
REPORT WEATHER SUCH AS PRECIPITATION, FOG, OR THUNDER AND ARE NOT
QUALITY CONTROLLED BY NWS.

THE REMARK "TC" DENOTES TEMPERATURE READING IN DEGREES CELSIUS.

GAZ001>058-030000-
NORTH GEORGIA

CITY           SKY/WX    TMP DP  RH WIND       PRES   REMARKS
ATLANTA        PTSUNNY   85  69  58 CALM      30.00F
ATHENS         SUNNY     89  68  49 W7        29.99S HX  93
CHAMBLEE       CLOUDY    80  68  66 CALM      30.00F
PEACHTREE CITY MOSUNNY   88  72  58 NE7       29.99F HX  94
ROME           SUNNY     89  72  56 S8        29.95F HX  96
WEST ATLANTA   PTSUNNY   82  72  71 W3        29.99F
GAINESVILLE    MOSUNNY   81  70  69 SW3       30.03F
CARTERSVILLE   MOSUNNY   86  70  58 SE7       29.97F HX  90


CITY           SKY/WX    TMP DP  RH WIND       PRES   REMARKS
DALTON*        SUNNY     86  72  62 S6        29.96F HX  92
LAWRENCEVILLE* SUNNY     81  66  61 CALM      30.00F
MARIETTA       PTSUNNY   80  74  81 CALM      30.00F
KENNESAW*      MOSUNNY   82  70  65 CALM      30.01F
$$

GAZ059>098-102>109-030000-
CENTRAL GEORGIA

CITY           SKY/WX    TMP DP  RH WIND       PRES   REMARKS
AUGUSTA-BUSH   CLOUDY    74  70  87 SW9       30.01F
AUGUSTA-DANIEL LGT RAIN  76  73  91 S8        30.02F
COLUMBUS       SUNNY     93  65  39 W9        29.95F HX  95
MACON          PTSUNNY   82  72  71 S7        29.97S
ROBINS AFB     PTSUNNY   78  73  82 S12       29.97S


CITY           SKY/WX    TMP DP  RH WIND       PRES   REMARKS
LAGRANGE*      SUNNY     94  72  49 W6        29.97S HX 102
SYLVANIA*      LGT RAIN  75  74  95 W6        30.04S
MILLEDGEVILLE* PTSUNNY   86  73  66 CALM      29.98R HX  93
$$

GAZ099>101-110>166-030000-
SOUTH GEORGIA

CITY           SKY/WX    TMP DP  RH WIND       PRES   REMARKS
SAVANNAH       LGT RAIN  76  73  91 S7        30.01F
VALDOSTA       CLOUDY    78  71  79 SE10G17   30.03R
ALMA           CLOUDY    75  73  93 SE3       30.02F
ST SIMONS      LGT RAIN  80  78  94 CALM      30.02R
FT STEWART     CLOUDY    74  72  93 SW1       30.01S
ALBANY         MOSUNNY   92  69  47 SW6       29.97S HX  97
HUNTER AFB     LGT RAIN  75  75  99 CALM      30.00S
MOODY AFB      PTSUNNY   78  70  77 SE12      30.02R
BRUNSWICK      CLOUDY    77  73  88 CALM      30.03R


CITY           SKY/WX    TMP DP  RH WIND       PRES   REMARKS
BAINBRIDGE*    SUNNY     97  68  38 SW6       29.97R HX 101
MOULTRIE*      MOSUNNY   90  73  58 S3        29.98S HX  98
VIDALIA*       LGT RAIN  79  72  78 S5        30.04F
WAYCROSS*      LGT RAIN  80  75  86 CALM      30.03R
DOUGLAS*       LGT RAIN  77  73  88 CALM      30.04S
$$


USA.gov is the U.S. government's official web portal to all federal, state and local government web resources and services.